Time,TemperatureF,DewpointF,PressureIn,WindDirection,WindDirectionDegrees,WindSpeedMPH,WindSpeedGustMPH,Humidity,HourlyPrecipIn,Conditions,Clouds,dailyrainin,SolarRadiationWatts/m^2,SoftwareType,DateUTC
2013-04-28 00:03:00,53.0,-99.9,-100.00,North,359,0.0,5.0,96,0.00,,,-99.99,0.000000,,2013-04-28 04:03:00,
2013-04-28 00:32:00,53.0,52.0,-100.00,SE,131,0.0,2.0,96,0.00,,,0.00,0.000000,,2013-04-28 04:32:00,
2013-04-28 00:43:00,53.0,52.0,-100.00,SE,131,0.0,2.0,96,0.00,,,0.00,0.000000,,2013-04-28 04:43:00,
2013-04-28 00:53:00,53.0,52.0,-100.00,SE,131,0.0,2.0,96,0.00,,,0.00,0.000000,,2013-04-28 04:53:00,
2013-04-28 01:02:00,53.0,52.0,-100.00,SE,131,0.0,2.0,96,0.00,,,0.00,0.000000,,2013-04-28 05:02:00,
2013-04-28 01:32:00,52.0,51.0,-100.00,SSW,197,0.0,2.0,97,0.00,,,0.00,0.000000,,2013-04-28 05:32:00,
2013-04-28 01:42:00,52.0,51.0,-100.00,SSW,197,0.0,2.0,97,0.00,,,0.00,0.000000,,2013-04-28 05:42:00,
2013-04-28 01:52:00,52.0,51.0,-100.00,SSW,197,0.0,2.0,97,0.00,,,0.00,0.000000,,2013-04-28 05:52:00,
2013-04-28 02:01:00,52.0,51.0,-100.00,SSW,197,0.0,2.0,97,0.00,,,0.00,0.000000,,2013-04-28 06:01:00,
2013-04-28 02:32:00,52.0,51.0,-100.00,SSW,204,0.0,0.0,97,0.00,,,0.00,0.000000,,2013-04-28 06:32:00,
2013-04-28 02:42:00,52.0,51.0,-100.00,SSW,204,0.0,0.0,97,0.00,,,0.00,0.000000,,2013-04-28 06:42:00,
2013-04-28 02:52:00,52.0,51.0,-100.00,SSW,204,0.0,0.0,97,0.00,,,0.00,0.000000,,2013-04-28 06:52:00,
2013-04-28 03:02:00,52.0,51.0,-100.00,SSW,204,0.0,0.0,97,0.00,,,0.00,0.000000,,2013-04-28 07:02:00,
2013-04-28 03:32:00,52.0,51.0,-100.00,SSW,202,0.0,4.0,98,0.00,,,0.00,0.000000,,2013-04-28 07:32:00,
2013-04-28 03:42:00,52.0,51.0,-100.00,SSW,202,0.0,4.0,98,0.00,,,0.00,0.000000,,2013-04-28 07:42:00,
2013-04-28 03:52:00,52.0,51.0,-100.00,SSW,202,0.0,4.0,98,0.00,,,0.00,0.000000,,2013-04-28 07:52:00,
2013-04-28 04:02:00,52.0,51.0,-100.00,SSW,202,0.0,4.0,98,0.00,,,0.00,0.000000,,2013-04-28 08:02:00,
2013-04-28 04:32:00,53.0,52.0,-100.00,WSW,249,0.0,4.0,98,0.00,,,0.00,0.000000,,2013-04-28 08:32:00,
2013-04-28 04:42:00,53.0,52.0,-100.00,WSW,249,0.0,4.0,98,0.00,,,0.00,0.000000,,2013-04-28 08:42:00,
2013-04-28 04:52:00,53.0,52.0,-100.00,WSW,249,0.0,4.0,98,0.00,,,0.00,0.000000,,2013-04-28 08:52:00,
2013-04-28 05:01:00,53.0,52.0,-100.00,WSW,249,0.0,4.0,98,0.00,,,0.00,0.000000,,2013-04-28 09:01:00,
2013-04-28 05:33:00,56.0,55.0,-100.00,NNW,342,4.0,15.0,98,0.00,,,0.00,0.000000,,2013-04-28 09:33:00,
2013-04-28 05:42:00,56.0,55.0,-100.00,NNW,342,4.0,15.0,98,0.00,,,0.00,0.000000,,2013-04-28 09:42:00,
2013-04-28 05:53:00,56.0,55.0,-100.00,NNW,342,4.0,15.0,98,0.00,,,0.00,0.000000,,2013-04-28 09:53:00,
2013-04-28 06:03:00,56.0,55.0,-100.00,NNW,342,4.0,15.0,98,0.00,,,0.00,0.000000,,2013-04-28 10:03:00,
2013-04-28 06:32:00,57.0,56.0,-100.00,SSE,165,5.0,17.0,96,0.00,,,0.00,0.000000,,2013-04-28 10:32:00,
2013-04-28 06:42:00,57.0,56.0,-100.00,SSE,165,5.0,17.0,96,0.00,,,0.00,0.000000,,2013-04-28 10:42:00,
2013-04-28 06:53:00,57.0,56.0,-100.00,SSE,165,5.0,17.0,96,0.00,,,0.00,0.000000,,2013-04-28 10:53:00,
2013-04-28 07:02:00,57.0,56.0,-100.00,SSE,165,5.0,17.0,96,0.00,,,0.00,0.000000,,2013-04-28 11:02:00,
2013-04-28 07:32:00,57.0,56.0,-100.00,ESE,120,3.0,11.0,95,0.00,,,0.00,0.000000,,2013-04-28 11:32:00,
2013-04-28 07:42:00,57.0,56.0,-100.00,ESE,120,3.0,11.0,95,0.00,,,0.00,0.000000,,2013-04-28 11:42:00,
2013-04-28 07:52:00,57.0,56.0,-100.00,ESE,120,3.0,11.0,95,0.00,,,0.00,0.000000,,2013-04-28 11:52:00,
2013-04-28 08:02:00,57.0,56.0,-100.00,ESE,120,3.0,11.0,95,0.00,,,0.00,0.000000,,2013-04-28 12:02:00,
2013-04-28 08:32:00,57.0,55.0,-100.00,SSW,211,2.0,9.0,94,0.00,,,0.00,11.000000,,2013-04-28 12:32:00,
2013-04-28 08:42:00,57.0,55.0,-100.00,SSW,211,2.0,9.0,94,0.00,,,0.00,11.000000,,2013-04-28 12:42:00,
2013-04-28 08:52:00,57.0,55.0,-100.00,SSW,211,2.0,9.0,94,0.00,,,0.00,11.000000,,2013-04-28 12:52:00,
2013-04-28 09:02:00,57.0,55.0,-100.00,SSW,211,2.0,9.0,94,0.00,,,0.00,11.000000,,2013-04-28 13:02:00,
2013-04-28 09:32:00,57.0,56.0,-100.00,ESE,105,1.0,7.0,95,0.00,,,0.00,7.000000,,2013-04-28 13:32:00,
2013-04-28 09:42:00,57.0,56.0,-100.00,ESE,105,1.0,7.0,95,0.00,,,0.00,7.000000,,2013-04-28 13:42:00,
2013-04-28 09:52:00,57.0,56.0,-100.00,ESE,105,1.0,7.0,95,0.00,,,0.00,7.000000,,2013-04-28 13:52:00,
2013-04-28 10:02:00,57.0,56.0,-100.00,ESE,105,1.0,7.0,95,0.00,,,0.00,7.000000,,2013-04-28 14:02:00,
2013-04-28 10:32:00,57.0,56.0,-100.00,East,89,0.0,6.0,96,0.00,,,0.00,13.000000,,2013-04-28 14:32:00,
2013-04-28 10:42:00,57.0,56.0,-100.00,East,89,0.0,6.0,96,0.00,,,0.00,13.000000,,2013-04-28 14:42:00,
2013-04-28 10:52:00,57.0,56.0,-100.00,East,89,0.0,6.0,96,0.00,,,0.00,13.000000,,2013-04-28 14:52:00,
2013-04-28 11:02:00,57.0,56.0,-100.00,East,89,0.0,6.0,96,0.00,,,0.00,13.000000,,2013-04-28 15:02:00,
2013-04-28 11:33:00,57.0,56.0,-100.00,SE,124,3.0,9.0,97,0.00,,,0.00,12.000000,,2013-04-28 15:33:00,
2013-04-28 11:43:00,57.0,56.0,-100.00,SE,124,3.0,9.0,97,0.00,,,0.00,12.000000,,2013-04-28 15:43:00,
2013-04-28 11:53:00,57.0,56.0,-100.00,SE,124,3.0,9.0,97,0.00,,,0.00,12.000000,,2013-04-28 15:53:00,
2013-04-28 12:03:00,57.0,56.0,-100.00,SE,124,3.0,9.0,97,0.00,,,0.00,12.000000,,2013-04-28 16:03:00,
2013-04-28 12:33:00,58.0,55.0,-100.00,SE,132,2.0,11.0,91,0.00,,,0.00,111.000000,,2013-04-28 16:33:00,
2013-04-28 12:43:00,58.0,55.0,-100.00,SE,132,2.0,11.0,91,0.00,,,0.00,111.000000,,2013-04-28 16:43:00,
2013-04-28 12:52:00,58.0,55.0,-100.00,SE,132,2.0,11.0,91,0.00,,,0.00,111.000000,,2013-04-28 16:52:00,
2013-04-28 13:02:00,58.0,55.0,-100.00,SE,132,2.0,11.0,91,0.00,,,0.00,111.000000,,2013-04-28 17:02:00,
2013-04-28 13:32:00,57.0,54.0,-100.00,East,92,1.0,13.0,91,0.00,,,0.00,27.000000,,2013-04-28 17:32:00,
2013-04-28 13:43:00,57.0,54.0,-100.00,East,92,1.0,13.0,91,0.00,,,0.00,27.000000,,2013-04-28 17:43:00,
2013-04-28 13:52:00,57.0,54.0,-100.00,East,92,1.0,13.0,91,0.00,,,0.00,27.000000,,2013-04-28 17:52:00,
2013-04-28 14:02:00,57.0,54.0,-100.00,East,92,1.0,13.0,91,0.00,,,0.00,27.000000,,2013-04-28 18:02:00,
2013-04-28 14:32:00,57.0,56.0,-100.00,SSE,160,4.0,8.0,95,0.00,,,0.00,29.000000,,2013-04-28 18:32:00,
2013-04-28 14:42:00,57.0,56.0,-100.00,SSE,160,4.0,8.0,95,0.00,,,0.00,29.000000,,2013-04-28 18:42:00,
2013-04-28 14:52:00,57.0,56.0,-100.00,SSE,160,4.0,8.0,95,0.00,,,0.00,29.000000,,2013-04-28 18:52:00,
2013-04-28 15:02:00,57.0,56.0,-100.00,SSE,160,4.0,8.0,95,0.00,,,0.00,29.000000,,2013-04-28 19:02:00,
2013-04-28 15:32:00,57.0,55.0,-100.00,SE,144,8.0,16.0,94,0.00,,,0.00,95.000000,,2013-04-28 19:32:00,
2013-04-28 15:42:00,57.0,55.0,-100.00,SE,144,8.0,16.0,94,0.00,,,0.00,95.000000,,2013-04-28 19:42:00,
2013-04-28 15:52:00,57.0,55.0,-100.00,SE,144,8.0,16.0,94,0.00,,,0.00,95.000000,,2013-04-28 19:52:00,
2013-04-28 16:02:00,57.0,55.0,-100.00,SE,144,8.0,16.0,94,0.00,,,0.00,95.000000,,2013-04-28 20:02:00,
2013-04-28 16:33:00,59.0,57.0,-100.00,WSW,246,7.0,15.0,92,0.00,,,0.00,127.000000,,2013-04-28 20:33:00,
2013-04-28 16:42:00,59.0,57.0,-100.00,WSW,246,7.0,15.0,92,0.00,,,0.00,127.000000,,2013-04-28 20:42:00,
2013-04-28 16:52:00,59.0,57.0,-100.00,WSW,246,7.0,15.0,92,0.00,,,0.00,127.000000,,2013-04-28 20:52:00,
2013-04-28 17:01:00,59.0,57.0,-100.00,WSW,246,7.0,15.0,92,0.00,,,0.00,127.000000,,2013-04-28 21:01:00,
2013-04-28 17:33:00,60.0,58.0,-100.00,WSW,244,4.0,12.0,92,0.00,,,0.00,84.000000,,2013-04-28 21:33:00,
2013-04-28 17:42:00,60.0,58.0,-100.00,WSW,244,4.0,12.0,92,0.00,,,0.00,84.000000,,2013-04-28 21:42:00,
2013-04-28 17:53:00,60.0,58.0,-100.00,WSW,244,4.0,12.0,92,0.00,,,0.00,84.000000,,2013-04-28 21:53:00,
2013-04-28 18:03:00,60.0,58.0,-100.00,WSW,244,4.0,12.0,92,0.00,,,0.00,84.000000,,2013-04-28 22:03:00,
2013-04-28 18:34:00,61.0,58.0,-100.00,South,191,6.0,9.0,90,0.00,,,0.00,88.000000,,2013-04-28 22:34:00,
2013-04-28 18:42:00,61.0,58.0,-100.00,South,191,6.0,9.0,90,0.00,,,0.00,88.000000,,2013-04-28 22:42:00,
2013-04-28 18:52:00,61.0,58.0,-100.00,South,191,6.0,9.0,90,0.00,,,0.00,88.000000,,2013-04-28 22:52:00,
2013-04-28 19:02:00,61.0,58.0,-100.00,South,191,6.0,9.0,90,0.00,,,0.00,88.000000,,2013-04-28 23:02:00,
2013-04-28 19:32:00,60.0,57.0,-100.00,SSW,197,7.0,13.0,89,0.00,,,0.00,44.000000,,2013-04-28 23:32:00,
2013-04-28 19:42:00,60.0,57.0,-100.00,SSW,197,7.0,13.0,89,0.00,,,0.00,44.000000,,2013-04-28 23:42:00,
2013-04-28 19:52:00,60.0,57.0,-100.00,SSW,197,7.0,13.0,89,0.00,,,0.00,44.000000,,2013-04-28 23:52:00,
2013-04-28 20:01:00,60.0,57.0,-100.00,SSW,197,7.0,13.0,89,0.00,,,0.00,44.000000,,2013-04-29 00:01:00,
2013-04-28 21:32:00,59.0,56.0,-100.00,SSW,195,8.0,13.0,89,-99.99,,,0.00,3.000000,,2013-04-29 01:32:00,
2013-04-28 21:42:00,59.0,56.0,-100.00,SSW,195,8.0,13.0,89,-99.99,,,0.00,3.000000,,2013-04-29 01:42:00,
2013-04-28 21:52:00,59.0,56.0,-100.00,SSW,195,8.0,13.0,89,-99.99,,,0.00,3.000000,,2013-04-29 01:52:00,
2013-04-28 22:02:00,59.0,56.0,-100.00,SSW,195,8.0,13.0,89,-99.99,,,0.00,3.000000,,2013-04-29 02:02:00,
2013-04-28 22:32:00,58.0,56.0,-100.00,SSW,197,4.0,10.0,92,0.00,,,0.00,0.000000,,2013-04-29 02:32:00,
2013-04-28 22:42:00,58.0,56.0,-100.00,SSW,197,4.0,10.0,92,0.00,,,0.00,0.000000,,2013-04-29 02:42:00,
2013-04-28 22:52:00,58.0,56.0,-100.00,SSW,197,4.0,10.0,92,0.00,,,0.00,0.000000,,2013-04-29 02:52:00,
2013-04-28 23:01:00,58.0,56.0,-100.00,SSW,197,4.0,10.0,92,0.00,,,0.00,0.000000,,2013-04-29 03:01:00,
2013-04-28 23:33:00,57.0,55.0,-100.00,SSW,207,0.0,6.0,94,0.00,,,0.00,0.000000,,2013-04-29 03:33:00,
2013-04-28 23:43:00,57.0,55.0,-100.00,SSW,207,0.0,6.0,94,0.00,,,0.00,0.000000,,2013-04-29 03:43:00,
2013-04-28 23:53:00,57.0,55.0,-100.00,SSW,207,0.0,6.0,94,0.00,,,0.00,0.000000,,2013-04-29 03:53:00,